Location: Dillon
(41.1766°N, 107.0923°W)
Time: 06:29:23
(UTC+00:00)

DIWATA 2B (PO-101) - Pass Details

Date: 28 June 2022
Orbit: 583 x 599 km, 98.0° (Epoch: 15 August)

Event Time Altitude Azimuth Distance (km) Brightness Sun altitude
Exits shadow 07:40:17 - 96° (E) 2,152 ? -25.2°
Reaches altitude 10° 07:41:24 10° 84° (E) 1,939 ? -25.2°
Maximum altitude 07:42:55 12° 62° (ENE) 1,826 ? -25.1°
Drops below altitude 10° 07:44:27 10° 41° (NE) 1,945 ? -25.1°
Sets 07:47:58 0° 10° (N) 2,855 ? -25.0°
